User: anonymous   Login
Location: Albany
(35.0000°S, 118.0000°E)
Time: 19:34:34
(UTC-05:00)
Language:

CZ-4B R/B - Orbit

View from above orbital plane
View from above orbital plane
View from above satellite
View from above satellite

Ground track
Ground track

The orbit data is extracted from the following two-line orbital elements,

1 33410U 08053C   15058.51659309  .00002025  00000-0  15971-3 0  9999
2 33410 097.6180 032.9654 0127577 131.0285 230.2049 14.95614654344985
Epoch (UTC): 27 February 2015 12:23:53
Eccentricity: 0.0127577
inclination: 97.6180°
perigee height: 491 km
apogee height: 669 km
right ascension of ascending node: 32.9654°
argument of perigee: 131.0285°
revolutions per day: 14.95614654
mean anomaly at epoch: 230.2049°
orbit number at epoch: 34498

The dashed part of the orbit path shows where the satellite is in the earth's shadow,  

DLR